TimeSAST,TemperatureF,Dew PointF,Humidity,Sea Level PressureIn,VisibilityMPH,Wind Direction,Wind SpeedMPH,Gust SpeedMPH,PrecipitationIn,Events,Conditions,WindDirDegrees,DateUTC
12:00 AM,57.2,51.8,82,30.09,-9999.0,ESE,5.8,-,N/A,,Clear,120,2013-12-01 22:00:00
1:00 AM,57.2,51.8,82,30.06,-9999.0,Variable,2.3,-,N/A,,Clear,0,2013-12-01 23:00:00
2:00 AM,56,52,81,30.07,6,North,2.3,,,,,10,2013-12-02 00:00:00
2:00 AM,55.4,51.8,88,30.06,-9999.0,Variable,2.3,-,N/A,,Clear,0,2013-12-02 00:00:00
3:00 AM,53.6,50.0,88,30.04,-9999.0,Variable,1.2,-,N/A,,Clear,0,2013-12-02 01:00:00
4:00 AM,53.6,50.0,88,30.04,-9999.0,Variable,1.2,-,N/A,,Clear,0,2013-12-02 02:00:00
5:00 AM,53,50,86,30.04,12,NNW,2.3,,,,Clear,340,2013-12-02 03:00:00
5:00 AM,53.6,50.0,88,30.04,-9999.0,Variable,2.3,-,N/A,,Clear,0,2013-12-02 03:00:00
6:00 AM,51.8,48.2,88,30.01,-9999.0,Variable,2.3,-,N/A,,Clear,0,2013-12-02 04:00:00
7:00 AM,55.4,51.8,88,30.01,-9999.0,NW,3.5,-,N/A,,Clear,320,2013-12-02 05:00:00
8:00 AM,62,55,71,30.05,12,WSW,4.6,,,,Scattered Clouds,250,2013-12-02 06:00:00
8:00 AM,60.8,55.4,82,30.04,-9999.0,WSW,4.6,-,N/A,,Clear,250,2013-12-02 06:00:00
9:00 AM,66.2,55.4,68,30.01,-9999.0,ESE,3.5,-,N/A,,Clear,120,2013-12-02 07:00:00
10:00 AM,69.8,55.4,60,30.01,-9999.0,Variable,2.3,-,N/A,,Clear,0,2013-12-02 08:00:00
11:00 AM,72,56,47,29.99,12,SSE,6.9,,,,Clear,150,2013-12-02 09:00:00
11:00 AM,71.6,55.4,57,29.98,-9999.0,South,5.8,-,N/A,,Clear,180,2013-12-02 09:00:00
12:00 PM,73.4,55.4,53,29.95,-9999.0,SSE,4.6,-,N/A,,Clear,160,2013-12-02 10:00:00
1:00 PM,77.0,53.6,44,29.95,-9999.0,South,4.6,-,N/A,,Clear,180,2013-12-02 11:00:00
2:00 PM,77,51,29,29.92,12,SSE,5.8,,,,Partly Cloudy,150,2013-12-02 12:00:00
2:00 PM,78.8,50.0,36,29.95,-9999.0,SSE,4.6,-,N/A,,Clear,160,2013-12-02 12:00:00
3:00 PM,78.8,57.2,47,29.92,-9999.0,SSW,8.1,-,N/A,,Clear,200,2013-12-02 13:00:00
4:00 PM,75.2,57.2,53,29.95,-9999.0,SW,6.9,-,N/A,,Clear,220,2013-12-02 14:00:00
5:00 PM,73,55,42,29.93,12,West,5.8,,,,Mostly Cloudy,270,2013-12-02 15:00:00
5:00 PM,73.4,55.4,53,29.95,-9999.0,West,4.6,-,N/A,,Clear,280,2013-12-02 15:00:00
6:00 PM,75.2,57.2,53,29.95,-9999.0,WNW,6.9,-,N/A,,Clear,290,2013-12-02 16:00:00
7:00 PM,75.2,59.0,57,29.95,-9999.0,WNW,6.9,-,N/A,,Clear,300,2013-12-02 17:00:00
8:00 PM,75,56,41,29.95,12,West,10.4,,,,Mostly Cloudy,270,2013-12-02 18:00:00
8:00 PM,75.2,55.4,50,29.98,-9999.0,West,10.4,-,N/A,,Clear,270,2013-12-02 18:00:00
9:00 PM,73.4,57.2,57,29.98,6.2,WNW,10.4,-,N/A,Rain,Light Rain,300,2013-12-02 19:00:00
10:00 PM,73.4,55.4,53,30.01,-9999.0,WNW,11.5,-,N/A,,Clear,290,2013-12-02 20:00:00